Weather History for York, NE

Change the Weather History Date:

Saturday, November 30, 2013

  Actual Average Record
Temperature  
Mean Temperature 40 °F -  
Max Temperature 59 °F 42 °F 67 °F (1970)
Min Temperature 21 °F 23 °F -2 °F (1964)
Degree Days  
Heating Degree Days 25    
Moisture  
Dew Point 25 °F    
Average Humidity 69    
Maximum Humidity 100    
Minimum Humidity 29    
Precipitation  
Precipitation 0.00 in - - ()
Sea Level Pressure  
Sea Level Pressure 30.09 in    
Wind  
Wind Speed 5 mph (NW)    
Max Wind Speed 9 mph    
Max Gust Speed -    
Visibility 10 miles    
Events      
Averages and records for this station are not official NWS values.
T = Trace of Precipitation, MM = Missing Value Source: NWS Daily Summary

Daily Weather History Graph

Daily Weather History Graph

Search for Another Location

Airport:

Trip Planner

Search our weather history database for the weather conditions in past years. The results will help you decide how hot, cold, wet, or windy it might be!

Date:

Astronomy

Nov. 30, 2013 Rise Set
Actual Time 7:34 AM CST 5:03 PM CST
Civil Twilight 7:04 AM CST 5:33 PM CST
Nautical Twilight 6:30 AM CST 6:07 PM CST
Astronomical Twilight 5:57 AM CST 6:40 PM CST
Moon 4:46 AM CST (11/30) 3:29 PM CST (11/30)
Length of Visible Light 10h 29m
Length of Day
9h 28m
Waning Crescent, 7% of the Moon is Illuminated
Nov 30
Waning Crescent
Dec 2
New
Dec 9
First Quarter
Dec 17
Full
Dec 25
Last Quarter

Hourly Weather History & Observations

Time (CST) Temp. Windchill Dew Point Humidity Pressure Visibility Wind Dir Wind Speed Gust Speed Precip Events Conditions
12:15 AM 26.6 °F 21.2 °F 24.8 °F 93% 30.11 in 10.0 mi SW 4.6 mph - N/A   Clear
12:35 AM 26.6 °F 20.0 °F 24.8 °F 93% 30.10 in 10.0 mi SW 5.8 mph - N/A   Clear
12:55 AM 26.6 °F 18.2 °F 24.8 °F 93% 30.09 in 10.0 mi SSW 8.1 mph - N/A   Clear
1:15 AM 26.6 °F 19.1 °F 24.8 °F 93% 30.09 in 10.0 mi SSW 6.9 mph - N/A   Clear
1:35 AM 26.6 °F 20.0 °F 24.8 °F 93% 30.09 in 10.0 mi SSW 5.8 mph - N/A   Clear
1:55 AM 24.8 °F 16.9 °F 23.0 °F 93% 30.09 in 10.0 mi SSW 6.9 mph - N/A   Clear
2:15 AM 24.8 °F 17.9 °F 23.0 °F 93% 30.08 in 10.0 mi SSW 5.8 mph - N/A   Clear
2:35 AM 23.0 °F 15.8 °F 21.2 °F 93% 30.09 in 10.0 mi WSW 5.8 mph - N/A   Clear
2:55 AM 21.2 °F 13.6 °F 19.4 °F 93% 30.09 in 10.0 mi SW 5.8 mph - N/A   Clear
3:15 AM 24.8 °F 19.1 °F 23.0 °F 93% 30.09 in 10.0 mi SW 4.6 mph - N/A   Clear
3:35 AM 24.8 °F 17.9 °F 23.0 °F 93% 30.08 in 10.0 mi SSW 5.8 mph - N/A   Clear
3:55 AM 23.0 °F 15.8 °F 21.2 °F 93% 30.08 in 10.0 mi SW 5.8 mph - N/A   Clear
4:15 AM 23.0 °F 14.7 °F 19.4 °F 86% 30.08 in 10.0 mi WSW 6.9 mph - N/A   Clear
4:35 AM 21.2 °F 11.7 °F 19.4 °F 93% 30.07 in 10.0 mi WSW 8.1 mph - N/A   Clear
4:55 AM 23.0 °F 13.1 °F 23.0 °F 100% 30.08 in 10.0 mi WSW 9.2 mph - N/A   Clear
5:15 AM 23.0 °F 13.9 °F 23.0 °F 100% 30.08 in 10.0 mi West 8.1 mph - N/A   Clear
5:35 AM 24.8 °F 16.1 °F 23.0 °F 93% 30.08 in 10.0 mi West 8.1 mph - N/A   Clear
5:55 AM 23.0 °F 13.9 °F 23.0 °F 100% 30.08 in 10.0 mi West 8.1 mph - N/A   Clear
6:15 AM 23.0 °F 15.8 °F 21.2 °F 93% 30.08 in 10.0 mi WSW 5.8 mph - N/A   Clear
6:35 AM 23.0 °F 15.8 °F 21.2 °F 93% 30.09 in 10.0 mi WSW 5.8 mph - N/A   Clear
6:55 AM 23.0 °F 14.7 °F 21.2 °F 93% 30.09 in 10.0 mi West 6.9 mph - N/A   Clear
7:15 AM 23.0 °F 14.7 °F 21.2 °F 93% 30.08 in 10.0 mi West 6.9 mph - N/A   Clear
7:35 AM 21.2 °F 12.6 °F 19.4 °F 93% 30.08 in 10.0 mi West 6.9 mph - N/A   Clear
7:55 AM 23.0 °F 15.8 °F 19.4 °F 86% 30.09 in 10.0 mi West 5.8 mph - N/A   Clear
8:15 AM 23.0 °F 15.8 °F 23.0 °F 100% 30.09 in 10.0 mi West 5.8 mph - N/A   Clear
8:35 AM 26.6 °F 22.6 °F 24.8 °F 93% 30.09 in 10.0 mi NW 3.5 mph - N/A   Clear
8:55 AM 28.4 °F 24.6 °F 26.6 °F 93% 30.09 in 10.0 mi WSW 3.5 mph - N/A   Clear
9:15 AM 32.0 °F 27.5 °F 26.6 °F 80% 30.10 in 10.0 mi West 4.6 mph - N/A   Clear
9:35 AM 33.8 °F 29.6 °F 28.4 °F 81% 30.11 in 10.0 mi West 4.6 mph - N/A   Clear
9:55 AM 37.4 °F 33.8 °F 30.2 °F 75% 30.12 in 10.0 mi West 4.6 mph - N/A   Clear
10:15 AM 39.2 °F 35.0 °F 30.2 °F 70% 30.12 in 10.0 mi West 5.8 mph - N/A   Clear
10:35 AM 41.0 °F 38.0 °F 32.0 °F 70% 30.12 in 10.0 mi NW 4.6 mph - N/A   Clear
10:55 AM 44.6 °F - 32.0 °F 61% 30.12 in 10.0 mi Calm Calm - N/A   Clear
11:15 AM 48.2 °F - 30.2 °F 50% 30.12 in 10.0 mi North 3.5 mph - N/A   Clear
11:35 AM 50.0 °F - 30.2 °F 47% 30.11 in 10.0 mi Calm Calm - N/A   Clear
11:55 AM 51.8 °F - 30.2 °F 44% 30.11 in 10.0 mi Calm Calm - N/A   Clear
12:15 PM 53.6 °F - 30.2 °F 41% 30.10 in 10.0 mi NNE 4.6 mph - N/A   Clear
12:35 PM 55.4 °F - 28.4 °F 36% 30.09 in 10.0 mi NNE 5.8 mph - N/A   Clear
12:55 PM 57.2 °F - 28.4 °F 33% 30.08 in 10.0 mi North 4.6 mph - N/A   Clear
1:15 PM 57.2 °F - 28.4 °F 33% 30.08 in 10.0 mi NNW 3.5 mph - N/A   Clear
1:35 PM 57.2 °F - 28.4 °F 33% 30.07 in 10.0 mi Calm Calm - N/A   Clear
1:55 PM 57.2 °F - 28.4 °F 33% 30.07 in 10.0 mi ENE 3.5 mph - N/A   Clear
2:15 PM 57.2 °F - 26.6 °F 31% 30.06 in 10.0 mi NW 3.5 mph - N/A   Clear
2:35 PM 59.0 °F - 28.4 °F 31% 30.06 in 10.0 mi Calm Calm - N/A   Clear
2:55 PM 59.0 °F - 26.6 °F 29% 30.06 in 10.0 mi Calm Calm - N/A   Clear
3:15 PM 59.0 °F - 26.6 °F 29% 30.06 in 10.0 mi Calm Calm - N/A   Clear
3:35 PM 59.0 °F - 26.6 °F 29% 30.05 in 10.0 mi Calm Calm - N/A   Clear
3:55 PM 59.0 °F - 26.6 °F 29% 30.06 in 10.0 mi Calm Calm - N/A   Clear
4:15 PM 57.2 °F - 26.6 °F 31% 30.06 in 10.0 mi Calm Calm - N/A   Clear
4:35 PM 55.4 °F - 26.6 °F 33% 30.06 in 10.0 mi Calm Calm - N/A   Clear
4:55 PM 55.4 °F - 26.6 °F 33% 30.06 in 10.0 mi Calm Calm - N/A   Clear
5:15 PM 50.0 °F - 24.8 °F 37% 30.07 in 10.0 mi North 3.5 mph - N/A   Clear
5:35 PM 51.8 °F - 26.6 °F 38% 30.08 in 10.0 mi Calm Calm - N/A   Clear
5:55 PM 48.2 °F - 26.6 °F 43% 30.08 in 10.0 mi North 3.5 mph - N/A   Clear
6:15 PM 44.6 °F 43.1 °F 26.6 °F 49% 30.09 in 10.0 mi ENE 3.5 mph - N/A   Clear
6:35 PM 41.0 °F 39.0 °F 24.8 °F 53% 30.10 in 10.0 mi North 3.5 mph - N/A   Clear
6:55 PM 39.2 °F 35.9 °F 23.0 °F 52% 30.10 in 10.0 mi North 4.6 mph - N/A   Clear
7:15 PM 35.6 °F 30.7 °F 21.2 °F 56% 30.11 in 10.0 mi NNE 5.8 mph - N/A   Clear
7:35 PM 35.6 °F 31.7 °F 23.0 °F 60% 30.11 in 10.0 mi NNE 4.6 mph - N/A   Clear
7:55 PM 32.0 °F 26.4 °F 23.0 °F 69% 30.11 in 10.0 mi NNE 5.8 mph - N/A   Clear
8:15 PM 32.0 °F 26.4 °F 21.2 °F 64% 30.11 in 10.0 mi NNE 5.8 mph - N/A   Clear
8:35 PM 33.8 °F 29.6 °F 23.0 °F 65% 30.12 in 10.0 mi NE 4.6 mph - N/A   Clear
8:55 PM 32.0 °F 28.7 °F 23.0 °F 69% 30.12 in 10.0 mi ENE 3.5 mph - N/A   Clear
9:15 PM 33.8 °F 28.6 °F 23.0 °F 65% 30.12 in 10.0 mi NE 5.8 mph - N/A   Clear
9:35 PM 32.0 °F 26.4 °F 23.0 °F 69% 30.12 in 10.0 mi NE 5.8 mph - N/A   Clear
9:55 PM 30.2 °F 23.4 °F 23.0 °F 75% 30.13 in 10.0 mi NNE 6.9 mph - N/A   Clear
10:15 PM 26.6 °F 18.2 °F 23.0 °F 86% 30.13 in 10.0 mi NE 8.1 mph - N/A   Clear
10:35 PM 32.0 °F 25.6 °F 23.0 °F 69% 30.14 in 10.0 mi NE 6.9 mph - N/A   Clear
10:55 PM 28.4 °F 20.4 °F 23.0 °F 80% 30.15 in 10.0 mi NNE 8.1 mph - N/A   Clear
11:15 PM 26.6 °F 18.2 °F 23.0 °F 86% 30.14 in 10.0 mi NNE 8.1 mph - N/A   Clear
11:35 PM 26.6 °F 19.1 °F 23.0 °F 86% 30.14 in 10.0 mi NNE 6.9 mph - N/A   Clear
11:55 PM 28.4 °F 23.3 °F 23.0 °F 80% 30.14 in 10.0 mi NE 4.6 mph - N/A   Clear